Time,TemperatureF,DewpointF,PressureIn,WindDirection,WindDirectionDegrees,WindSpeedMPH,WindSpeedGustMPH,Humidity,HourlyPrecipIn,Conditions,Clouds,dailyrainin,SolarRadiationWatts/m^2,SoftwareType,DateUTC
2013-02-21 00:21:00,30.0,28.0,-100.00,North,-999,-999.0,6.0,92,0.00,,,-99.99,0.000000,,2013-02-21 07:21:00,
2013-02-21 00:32:00,29.0,28.0,-100.00,North,-999,-999.0,6.0,93,0.00,,,-99.99,0.000000,,2013-02-21 07:32:00,
2013-02-21 00:42:00,29.0,28.0,-100.00,North,-999,-999.0,7.0,94,0.00,,,-99.99,0.000000,,2013-02-21 07:42:00,
2013-02-21 00:52:00,29.0,28.0,-100.00,North,-999,-999.0,11.0,95,0.00,,,-99.99,0.000000,,2013-02-21 07:52:00,
2013-02-21 01:01:00,29.0,27.0,-100.00,North,-999,-999.0,10.0,95,0.00,,,-99.99,0.000000,,2013-02-21 08:01:00,
2013-02-21 01:11:00,29.0,27.0,-100.00,North,-999,-999.0,10.0,93,0.00,,,-99.99,0.000000,,2013-02-21 08:11:00,
2013-02-21 01:21:00,29.0,24.0,-100.00,North,-999,-999.0,12.0,80,0.00,,,-99.99,0.000000,,2013-02-21 08:21:00,
2013-02-21 01:31:00,30.0,23.0,-100.00,North,-999,-999.0,14.0,77,0.00,,,-99.99,0.000000,,2013-02-21 08:31:00,
2013-02-21 01:41:00,30.0,23.0,-100.00,North,-999,-999.0,11.0,77,0.00,,,-99.99,0.000000,,2013-02-21 08:41:00,
2013-02-21 01:51:00,30.0,24.0,-100.00,North,-999,-999.0,11.0,78,0.00,,,-99.99,0.000000,,2013-02-21 08:51:00,
2013-02-21 02:01:00,29.0,24.0,-100.00,North,-999,-999.0,11.0,79,0.00,,,-99.99,0.000000,,2013-02-21 09:01:00,
2013-02-21 02:11:00,29.0,24.0,-100.00,North,-999,-999.0,9.0,80,0.00,,,-99.99,0.000000,,2013-02-21 09:11:00,
2013-02-21 02:22:00,29.0,24.0,-100.00,North,-999,-999.0,8.0,83,0.00,,,-99.99,0.000000,,2013-02-21 09:22:00,
2013-02-21 02:31:00,29.0,25.0,-100.00,North,-999,-999.0,9.0,86,0.00,,,-99.99,0.000000,,2013-02-21 09:31:00,
2013-02-21 02:41:00,28.0,25.0,-100.00,North,-999,-999.0,9.0,88,0.00,,,-99.99,0.000000,,2013-02-21 09:41:00,
2013-02-21 02:51:00,28.0,25.0,-100.00,North,-999,-999.0,8.0,89,0.00,,,-99.99,0.000000,,2013-02-21 09:51:00,
2013-02-21 03:01:00,28.0,25.0,-100.00,North,-999,-999.0,7.0,87,0.00,,,-99.99,0.000000,,2013-02-21 10:01:00,
2013-02-21 03:11:00,28.0,25.0,-100.00,North,-999,-999.0,7.0,88,0.00,,,-99.99,0.000000,,2013-02-21 10:11:00,
2013-02-21 03:21:00,28.0,25.0,-100.00,North,-999,-999.0,7.0,89,0.00,,,-99.99,0.000000,,2013-02-21 10:21:00,
2013-02-21 03:31:00,28.0,25.0,-100.00,North,-999,-999.0,8.0,90,0.00,,,-99.99,0.000000,,2013-02-21 10:31:00,
2013-02-21 03:41:00,27.0,25.0,-100.00,North,-999,-999.0,7.0,91,0.00,,,-99.99,0.000000,,2013-02-21 10:41:00,
2013-02-21 03:50:00,28.0,24.0,-100.00,North,-999,-999.0,8.0,82,0.00,,,-99.99,0.000000,,2013-02-21 10:50:00,
2013-02-21 03:51:00,27.0,25.0,-100.00,North,-999,-999.0,6.0,91,0.00,,,-99.99,0.000000,,2013-02-21 10:51:00,
2013-02-21 04:00:00,28.0,24.0,-100.00,North,-999,-999.0,9.0,87,0.00,,,-99.99,0.000000,,2013-02-21 11:00:00,
2013-02-21 04:11:00,28.0,24.0,-100.00,North,-999,-999.0,8.0,82,0.00,,,-99.99,0.000000,,2013-02-21 11:11:00,
2013-02-21 04:20:00,28.0,24.0,-100.00,North,-999,-999.0,8.0,82,0.00,,,-99.99,0.000000,,2013-02-21 11:20:00,
2013-02-21 04:31:00,28.0,24.0,-100.00,North,-999,-999.0,8.0,82,0.00,,,-99.99,0.000000,,2013-02-21 11:31:00,
2013-02-21 04:41:00,28.0,24.0,-100.00,North,-999,-999.0,8.0,82,0.00,,,-99.99,0.000000,,2013-02-21 11:41:00,
2013-02-21 05:22:00,27.0,24.0,-100.00,North,-999,-999.0,7.0,85,0.00,,,-99.99,0.000000,,2013-02-21 12:22:00,
2013-02-21 05:32:00,28.0,23.0,-100.00,North,-999,-999.0,8.0,83,0.00,,,-99.99,0.000000,,2013-02-21 12:32:00,
2013-02-21 05:43:00,28.0,23.0,-100.00,North,-999,-999.0,5.0,83,0.00,,,-99.99,0.000000,,2013-02-21 12:43:00,
2013-02-21 05:52:00,28.0,23.0,-100.00,North,-999,-999.0,4.0,82,0.00,,,-99.99,0.000000,,2013-02-21 12:52:00,
2013-02-21 06:01:00,27.0,23.0,-100.00,North,-999,-999.0,6.0,83,0.00,,,-99.99,0.000000,,2013-02-21 13:01:00,
2013-02-21 06:12:00,27.0,23.0,-100.00,North,-999,-999.0,7.0,86,0.00,,,-99.99,0.000000,,2013-02-21 13:12:00,
2013-02-21 06:22:00,27.0,24.0,-100.00,North,-999,-999.0,7.0,89,0.00,,,-99.99,0.000000,,2013-02-21 13:22:00,
2013-02-21 06:31:00,27.0,24.0,-100.00,North,-999,-999.0,7.0,89,0.00,,,-99.99,0.000000,,2013-02-21 13:31:00,
2013-02-21 06:41:00,27.0,24.0,-100.00,North,-999,-999.0,7.0,91,0.00,,,-99.99,0.000000,,2013-02-21 13:41:00,
2013-02-21 06:51:00,27.0,25.0,-100.00,North,-999,-999.0,9.0,92,0.00,,,-99.99,0.000000,,2013-02-21 13:51:00,
2013-02-21 07:02:00,27.0,25.0,-100.00,North,-999,-999.0,6.0,93,0.00,,,-99.99,0.000000,,2013-02-21 14:02:00,
2013-02-21 07:11:00,26.0,25.0,-100.00,North,-999,-999.0,7.0,93,0.00,,,-99.99,0.000000,,2013-02-21 14:11:00,
2013-02-21 07:21:00,26.0,24.0,-100.00,North,-999,-999.0,5.0,93,0.00,,,-99.99,0.000000,,2013-02-21 14:21:00,
2013-02-21 07:31:00,26.0,25.0,-100.00,North,-999,-999.0,4.0,94,0.00,,,-99.99,1.000000,,2013-02-21 14:31:00,
2013-02-21 07:41:00,26.0,24.0,-100.00,North,-999,-999.0,3.0,94,0.00,,,-99.99,2.000000,,2013-02-21 14:41:00,
2013-02-21 07:52:00,26.0,25.0,-100.00,North,-999,-999.0,3.0,94,0.00,,,-99.99,5.000000,,2013-02-21 14:52:00,
2013-02-21 08:01:00,26.0,24.0,-100.00,North,-999,-999.0,4.0,94,0.00,,,-99.99,9.000000,,2013-02-21 15:01:00,
2013-02-21 08:12:00,26.0,25.0,-100.00,North,-999,-999.0,6.0,94,0.00,,,-99.99,14.000000,,2013-02-21 15:12:00,
2013-02-21 08:21:00,26.0,25.0,-100.00,North,-999,-999.0,6.0,94,0.00,,,-99.99,17.000000,,2013-02-21 15:21:00,
2013-02-21 08:31:00,26.0,25.0,-100.00,North,-999,-999.0,6.0,94,0.00,,,-99.99,33.000000,,2013-02-21 15:31:00,
2013-02-21 08:41:00,26.0,25.0,-100.00,North,-999,-999.0,5.0,94,0.00,,,-99.99,57.000000,,2013-02-21 15:41:00,
2013-02-21 08:50:00,28.0,25.0,-100.00,North,-999,-999.0,6.0,91,0.00,,,-99.99,248.000000,,2013-02-21 15:50:00,
2013-02-21 08:51:00,27.0,25.0,-100.00,North,-999,-999.0,5.0,93,0.00,,,-99.99,81.000000,,2013-02-21 15:51:00,
2013-02-21 09:01:00,27.0,25.0,-100.00,North,-999,-999.0,6.0,92,0.00,,,-99.99,179.000000,,2013-02-21 16:01:00,
2013-02-21 09:12:00,28.0,25.0,-100.00,North,-999,-999.0,6.0,91,0.00,,,-99.99,248.000000,,2013-02-21 16:12:00,
2013-02-21 09:21:00,28.0,25.0,-100.00,North,-999,-999.0,6.0,91,0.00,,,-99.99,248.000000,,2013-02-21 16:21:00,
2013-02-21 09:31:00,28.0,25.0,-100.00,North,-999,-999.0,6.0,91,0.00,,,-99.99,248.000000,,2013-02-21 16:31:00,
2013-02-21 09:42:00,28.0,25.0,-100.00,North,-999,-999.0,6.0,91,0.00,,,-99.99,248.000000,,2013-02-21 16:42:00,
2013-02-21 10:32:00,29.0,24.0,-100.00,North,-999,-999.0,6.0,82,0.00,,,-99.99,330.000000,,2013-02-21 17:32:00,
2013-02-21 10:42:00,29.0,24.0,-100.00,North,-999,-999.0,5.0,79,0.00,,,-99.99,347.000000,,2013-02-21 17:42:00,
2013-02-21 10:52:00,30.0,24.0,-100.00,North,-999,-999.0,5.0,77,0.00,,,-99.99,346.000000,,2013-02-21 17:52:00,
2013-02-21 11:01:00,31.0,24.0,-100.00,North,-999,-999.0,5.0,74,0.00,,,-99.99,390.000000,,2013-02-21 18:01:00,
2013-02-21 11:11:00,32.0,24.0,-100.00,North,-999,-999.0,7.0,71,0.00,,,-99.99,494.000000,,2013-02-21 18:11:00,
2013-02-21 11:21:00,32.0,23.0,-100.00,North,-999,-999.0,7.0,70,0.00,,,-99.99,503.000000,,2013-02-21 18:21:00,
2013-02-21 11:31:00,32.0,23.0,-100.00,North,-999,-999.0,7.0,70,0.00,,,-99.99,503.000000,,2013-02-21 18:31:00,
2013-02-21 11:42:00,32.0,23.0,-100.00,North,-999,-999.0,6.0,69,0.00,,,-99.99,379.000000,,2013-02-21 18:42:00,
2013-02-21 11:51:00,32.0,23.0,-100.00,North,-999,-999.0,6.0,69,0.00,,,-99.99,362.000000,,2013-02-21 18:51:00,
2013-02-21 12:01:00,32.0,23.0,-100.00,North,-999,-999.0,5.0,69,0.00,,,-99.99,376.000000,,2013-02-21 19:01:00,
2013-02-21 12:11:00,34.0,23.0,-100.00,North,-999,-999.0,4.0,64,0.00,,,-99.99,743.000000,,2013-02-21 19:11:00,
2013-02-21 12:21:00,35.0,23.0,-100.00,North,-999,-999.0,6.0,62,0.00,,,-99.99,748.000000,,2013-02-21 19:21:00,
2013-02-21 12:31:00,36.0,24.0,-100.00,North,-999,-999.0,5.0,60,0.00,,,-99.99,503.000000,,2013-02-21 19:31:00,
2013-02-21 12:41:00,35.0,24.0,-100.00,North,-999,-999.0,5.0,64,0.00,,,-99.99,319.000000,,2013-02-21 19:41:00,
2013-02-21 12:51:00,33.0,24.0,-100.00,North,-999,-999.0,7.0,69,0.00,,,-99.99,412.000000,,2013-02-21 19:51:00,
2013-02-21 13:01:00,33.0,23.0,-100.00,North,-999,-999.0,8.0,66,0.00,,,-99.99,218.000000,,2013-02-21 20:01:00,
2013-02-21 13:11:00,32.0,23.0,-100.00,North,-999,-999.0,10.0,70,0.00,,,-99.99,226.000000,,2013-02-21 20:11:00,
2013-02-21 13:21:00,32.0,22.0,-100.00,North,-999,-999.0,7.0,66,0.00,,,-99.99,186.000000,,2013-02-21 20:21:00,
2013-02-21 13:31:00,32.0,22.0,-100.00,North,-999,-999.0,10.0,68,0.00,,,-99.99,208.000000,,2013-02-21 20:31:00,
2013-02-21 13:41:00,32.0,22.0,-100.00,North,-999,-999.0,9.0,68,0.00,,,-99.99,226.000000,,2013-02-21 20:41:00,
2013-02-21 13:50:00,35.0,21.0,-100.00,North,-999,-999.0,8.0,55,0.00,,,-99.99,794.000000,,2013-02-21 20:50:00,
2013-02-21 13:52:00,32.0,22.0,-100.00,North,-999,-999.0,7.0,65,0.00,,,-99.99,310.000000,,2013-02-21 20:52:00,
2013-02-21 14:02:00,33.0,21.0,-100.00,North,-999,-999.0,6.0,61,0.00,,,-99.99,425.000000,,2013-02-21 21:02:00,
2013-02-21 14:11:00,35.0,21.0,-100.00,North,-999,-999.0,8.0,55,0.00,,,-99.99,794.000000,,2013-02-21 21:11:00,
2013-02-21 14:21:00,35.0,21.0,-100.00,North,-999,-999.0,8.0,55,0.00,,,-99.99,794.000000,,2013-02-21 21:21:00,
2013-02-21 14:31:00,35.0,21.0,-100.00,North,-999,-999.0,8.0,55,0.00,,,-99.99,794.000000,,2013-02-21 21:31:00,
2013-02-21 14:41:00,35.0,21.0,-100.00,North,-999,-999.0,8.0,55,0.00,,,-99.99,794.000000,,2013-02-21 21:41:00,
2013-02-21 15:22:00,32.0,23.0,-100.00,North,-999,-999.0,9.0,70,0.00,,,-99.99,148.000000,,2013-02-21 22:22:00,
2013-02-21 15:32:00,31.0,23.0,-100.00,North,-999,-999.0,7.0,70,0.00,,,-99.99,222.000000,,2013-02-21 22:32:00,
2013-02-21 15:42:00,32.0,23.0,-100.00,North,-999,-999.0,5.0,70,0.00,,,-99.99,275.000000,,2013-02-21 22:42:00,
2013-02-21 15:52:00,32.0,23.0,-100.00,North,-999,-999.0,5.0,70,0.00,,,-99.99,275.000000,,2013-02-21 22:52:00,
2013-02-21 16:01:00,31.0,25.0,-100.00,North,-999,-999.0,6.0,76,0.00,,,-99.99,79.000000,,2013-02-21 23:01:00,
2013-02-21 16:11:00,31.0,25.0,-100.00,North,-999,-999.0,7.0,79,0.00,,,-99.99,98.000000,,2013-02-21 23:11:00,
2013-02-21 16:21:00,30.0,27.0,-100.00,North,-999,-999.0,10.0,87,0.00,,,-99.99,88.000000,,2013-02-21 23:21:00,
2013-02-21 16:31:00,29.0,27.0,-100.00,North,-999,-999.0,9.0,89,0.00,,,-99.99,50.000000,,2013-02-21 23:31:00,
2013-02-21 16:41:00,29.0,27.0,-100.00,North,-999,-999.0,7.0,91,0.00,,,-99.99,69.000000,,2013-02-21 23:41:00,
2013-02-21 16:52:00,29.0,27.0,-100.00,North,-999,-999.0,5.0,91,0.00,,,-99.99,93.000000,,2013-02-21 23:52:00,
2013-02-21 17:01:00,30.0,28.0,-100.00,North,-999,-999.0,6.0,89,0.00,,,-99.99,187.000000,,2013-02-22 00:01:00,
2013-02-21 17:11:00,31.0,26.0,-100.00,North,-999,-999.0,5.0,83,0.00,,,-99.99,154.000000,,2013-02-22 00:11:00,
2013-02-21 17:21:00,31.0,25.0,-100.00,North,-999,-999.0,7.0,81,0.00,,,-99.99,61.000000,,2013-02-22 00:21:00,
2013-02-21 17:31:00,30.0,25.0,-100.00,North,-999,-999.0,8.0,81,0.00,,,-99.99,40.000000,,2013-02-22 00:31:00,
2013-02-21 17:41:00,30.0,24.0,-100.00,North,-999,-999.0,7.0,79,0.00,,,-99.99,32.000000,,2013-02-22 00:41:00,
2013-02-21 17:51:00,30.0,25.0,-100.00,North,-999,-999.0,6.0,81,0.00,,,-99.99,24.000000,,2013-02-22 00:51:00,
2013-02-21 18:01:00,30.0,26.0,-100.00,North,-999,-999.0,7.0,85,0.00,,,-99.99,18.000000,,2013-02-22 01:01:00,
2013-02-21 18:11:00,29.0,26.0,-100.00,North,-999,-999.0,6.0,89,0.00,,,-99.99,13.000000,,2013-02-22 01:11:00,
2013-02-21 18:21:00,29.0,27.0,-100.00,North,-999,-999.0,6.0,91,0.00,,,-99.99,10.000000,,2013-02-22 01:21:00,
2013-02-21 18:32:00,29.0,27.0,-100.00,North,-999,-999.0,6.0,91,0.00,,,-99.99,10.000000,,2013-02-22 01:32:00,
2013-02-21 18:42:00,28.0,25.0,-100.00,North,-999,-999.0,3.0,89,0.00,,,-99.99,1.000000,,2013-02-22 01:42:00,
2013-02-21 18:50:00,27.0,24.0,-100.00,North,-999,-999.0,3.0,88,0.00,,,-99.99,0.000000,,2013-02-22 01:50:00,
2013-02-21 18:51:00,28.0,25.0,-100.00,North,-999,-999.0,1.0,89,0.00,,,-99.99,0.000000,,2013-02-22 01:51:00,
2013-02-21 19:01:00,28.0,25.0,-100.00,North,-999,-999.0,2.0,90,0.00,,,-99.99,0.000000,,2013-02-22 02:01:00,
2013-02-21 19:11:00,27.0,24.0,-100.00,North,-999,-999.0,3.0,88,0.00,,,-99.99,0.000000,,2013-02-22 02:11:00,
2013-02-21 19:21:00,27.0,24.0,-100.00,North,-999,-999.0,3.0,88,0.00,,,-99.99,0.000000,,2013-02-22 02:21:00,
2013-02-21 19:31:00,27.0,24.0,-100.00,North,-999,-999.0,3.0,88,0.00,,,-99.99,0.000000,,2013-02-22 02:31:00,
2013-02-21 19:42:00,27.0,24.0,-100.00,North,-999,-999.0,3.0,88,0.00,,,-99.99,0.000000,,2013-02-22 02:42:00,
2013-02-21 20:22:00,25.0,23.0,-100.00,North,-999,-999.0,3.0,90,0.00,,,-99.99,0.000000,,2013-02-22 03:22:00,
2013-02-21 20:32:00,25.0,23.0,-100.00,North,-999,-999.0,2.0,92,0.00,,,-99.99,0.000000,,2013-02-22 03:32:00,
2013-02-21 20:42:00,25.0,23.0,-100.00,North,-999,-999.0,3.0,93,0.00,,,-99.99,0.000000,,2013-02-22 03:42:00,
2013-02-21 20:52:00,25.0,23.0,-100.00,North,-999,-999.0,3.0,94,0.00,,,-99.99,0.000000,,2013-02-22 03:52:00,
2013-02-21 21:01:00,25.0,23.0,-100.00,North,-999,-999.0,4.0,93,0.00,,,-99.99,0.000000,,2013-02-22 04:01:00,
2013-02-21 21:11:00,25.0,23.0,-100.00,North,-999,-999.0,4.0,93,0.00,,,-99.99,0.000000,,2013-02-22 04:11:00,
2013-02-21 21:21:00,25.0,23.0,-100.00,North,-999,-999.0,3.0,92,0.00,,,-99.99,0.000000,,2013-02-22 04:21:00,
2013-02-21 21:31:00,25.0,23.0,-100.00,North,-999,-999.0,2.0,92,0.00,,,-99.99,0.000000,,2013-02-22 04:31:00,
2013-02-21 21:42:00,24.0,21.0,-100.00,North,-999,-999.0,3.0,90,0.00,,,-99.99,0.000000,,2013-02-22 04:42:00,
2013-02-21 21:51:00,23.0,21.0,-100.00,North,-999,-999.0,4.0,90,0.00,,,-99.99,0.000000,,2013-02-22 04:51:00,
2013-02-21 22:01:00,24.0,20.0,-100.00,North,-999,-999.0,4.0,86,0.00,,,-99.99,0.000000,,2013-02-22 05:01:00,
2013-02-21 22:11:00,25.0,20.0,-100.00,North,-999,-999.0,4.0,84,0.00,,,-99.99,0.000000,,2013-02-22 05:11:00,
2013-02-21 22:21:00,24.0,19.0,-100.00,North,-999,-999.0,4.0,82,0.00,,,-99.99,0.000000,,2013-02-22 05:21:00,
2013-02-21 22:32:00,24.0,19.0,-100.00,North,-999,-999.0,3.0,83,0.00,,,-99.99,0.000000,,2013-02-22 05:32:00,
2013-02-21 22:41:00,23.0,19.0,-100.00,North,-999,-999.0,3.0,85,0.00,,,-99.99,0.000000,,2013-02-22 05:41:00,
2013-02-21 22:52:00,23.0,20.0,-100.00,North,-999,-999.0,3.0,89,0.00,,,-99.99,0.000000,,2013-02-22 05:52:00,
2013-02-21 23:01:00,23.0,21.0,-100.00,North,-999,-999.0,4.0,91,0.00,,,-99.99,0.000000,,2013-02-22 06:01:00,
2013-02-21 23:11:00,23.0,20.0,-100.00,North,-999,-999.0,3.0,91,0.00,,,-99.99,0.000000,,2013-02-22 06:11:00,
2013-02-21 23:21:00,22.0,19.0,-100.00,North,-999,-999.0,2.0,91,0.00,,,-99.99,0.000000,,2013-02-22 06:21:00,
2013-02-21 23:31:00,22.0,20.0,-100.00,North,-999,-999.0,3.0,92,0.00,,,-99.99,0.000000,,2013-02-22 06:31:00,
2013-02-21 23:42:00,22.0,20.0,-100.00,North,-999,-999.0,4.0,92,0.00,,,-99.99,0.000000,,2013-02-22 06:42:00,
2013-02-21 23:50:00,23.0,21.0,-100.00,North,-999,-999.0,3.0,92,0.00,,,-99.99,0.000000,,2013-02-22 06:50:00,
2013-02-21 23:51:00,23.0,20.0,-100.00,North,-999,-999.0,4.0,90,0.00,,,-99.99,0.000000,,2013-02-22 06:51:00,